This is the latest recevied weather packets stored in our database for station/object N8HON. If no packets are shown the sender has not sent any weather packets the latest 10 day(s).
| Time | Temp. | Humidity | Pressure | Rain* | Wind** | Luminosity | Snow |
|---|---|---|---|---|---|---|---|
| 1777987607 | 21.67° C | 48% | 1011.8 hPa | 0 mm | - | 434 W/m² | - |
| 1777987305 | 21.67° C | 48% | 1012.1 hPa | 0 mm | - | 417 W/m² | - |
| 1777987001 | 21.11° C | 49% | 1012 hPa | 0 mm | - | 402 W/m² | - |
| 1777986699 | 21.11° C | 49% | 1012 hPa | 0 mm | - | 356 W/m² | - |
| 1777986397 | 20.56° C | 50% | 1012.3 hPa | 0 mm | - | 339 W/m² | - |
| 1777986096 | 20.56° C | 52% | 1011.8 hPa | 0 mm | - | 309 W/m² | - |
| 1777985791 | 20.56° C | 54% | 1011.7 hPa | 0 mm | - | 286 W/m² | - |
| 1777985488 | 20° C | 57% | 1011.8 hPa | 0 mm | - | 80 W/m² | - |
| 1777985185 | 19.44° C | 55% | 1011.7 hPa | 0 mm | - | 252 W/m² | - |
| 1777984881 | 18.89° C | 59% | 1011.8 hPa | 0 mm | - | 233 W/m² | - |
| 1777984577 | 18.89° C | 58% | 1012 hPa | 0 mm | - | 217 W/m² | - |
| 1777984274 | 18.89° C | 59% | 1012.1 hPa | 0 mm | - | 207 W/m² | - |
| 1777983971 | 18.33° C | 59% | 1012.1 hPa | 0 mm | - | 206 W/m² | - |
| 1777983669 | 17.78° C | 61% | 1012.3 hPa | 0 mm | - | 195 W/m² | - |
| 1777983364 | 17.78° C | 58% | 1012.4 hPa | 0 mm | - | 178 W/m² | - |
| 1777983061 | 17.22° C | 60% | 1012.4 hPa | 0 mm | - | 170 W/m² | - |
| 1777982758 | 17.22° C | 64% | 1012.5 hPa | 0 mm | - | 154 W/m² | - |
| 1777982454 | 16.67° C | 64% | 1012.6 hPa | 0 mm | - | 143 W/m² | - |
| 1777982148 | 15.56° C | 65% | 1012.7 hPa | 0 mm | - | 127 W/m² | - |
| 1777981846 | 14.44° C | 68% | 1012.6 hPa | 0 mm | - | 43 W/m² | - |
| 1777981543 | 13.89° C | 70% | 1012.7 hPa | 0 mm | - | 110 W/m² | - |
| 1777981239 | 12.78° C | 74% | 1012.6 hPa | 0 mm | - | 79 W/m² | - |
| 1777980935 | 11.67° C | 76% | 1012.6 hPa | 0 mm | - | 39 W/m² | - |
| 1777980632 | 11.67° C | 78% | 1012.4 hPa | 0 mm | - | 33 W/m² | - |
| 1777980329 | 11.67° C | 78% | 1012.4 hPa | 0 mm | - | 29 W/m² | - |
* Rain latest hour (hover to see other rain measurements)
** Current wind speed in m/s (hover to see current wind gust speed)